EN

Hourly Weather Bolshoe Darino

Today, 21 October, Wednesday

Time Temperature Precipitation Wind Pressure Humidity
00:00 0°C° 0 mm 3 mps 752 mmHg 85%
01:00 0°C° 0 mm 3 mps 753 mmHg 84%
02:00 -1°C° 0 mm 4 mps 753 mmHg 82%
03:00 -1°C° 0 mm 4 mps 754 mmHg 82%
04:00 -1°C° 0 mm 3 mps 754 mmHg 85%
05:00 -1°C° 0 mm 3 mps 754 mmHg 87%
06:00 -1°C° 0 mm 3 mps 754 mmHg 89%
07:00 -1°C° 0 mm 3 mps 754 mmHg 84%
08:00 0°C° 0 mm 3 mps 755 mmHg 79%
09:00 -1°C° 0 mm 4 mps 755 mmHg 73%
10:00 0°C° 0 mm 4 mps 755 mmHg 70%
11:00 +2°C° 0 mm 3 mps 755 mmHg 68%
12:00 +3°C° 0 mm 3 mps 755 mmHg 65%
13:00 +3°C° 0 mm 3 mps 755 mmHg 65%
14:00 +3°C° 0 mm 3 mps 755 mmHg 64%
15:00 +3°C° 0 mm 3 mps 755 mmHg 64%
16:00 +2°C° 0 mm 3 mps 755 mmHg 69%
17:00 +3°C° 0 mm 2 mps 755 mmHg 74%
18:00 +3°C° 0 mm 1 mps 754 mmHg 79%
19:00 +2°C° 0 mm 2 mps 754 mmHg 83%
20:00 +2°C° 0 mm 2 mps 754 mmHg 88%
21:00 +1°C° 0 mm 2 mps 754 mmHg 93%
22:00 +1°C° 0 mm 2 mps 754 mmHg 93%
23:00 +3°C° 0 mm 1 mps 754 mmHg 93%

Tomorrow, 22 October, Thursday

Time Temperature Precipitation Wind Pressure Humidity
00:00 +3°C° 0 mm 1 mps 754 mmHg 94%
01:00 +3°C° 0 mm 1 mps 754 mmHg 94%
02:00 +3°C° 0 mm 1 mps 754 mmHg 94%
03:00 +3°C° 0 mm 1 mps 754 mmHg 94%
04:00 +3°C° 0 mm 1 mps 754 mmHg 94%
05:00 +4°C° 0 mm 1 mps 754 mmHg 95%
06:00 +4°C° 0 mm 1 mps 753 mmHg 95%
07:00 +4°C° 0 mm 1 mps 753 mmHg 94%
08:00 +3°C° 0 mm 2 mps 754 mmHg 93%
09:00 +3°C° 0 mm 2 mps 754 mmHg 93%
10:00 +4°C° 0.1 mm 2 mps 753 mmHg 92%
11:00 +4°C° 0.1 mm 2 mps 753 mmHg 91%
12:00 +5°C° 0.1 mm 2 mps 753 mmHg 90%
13:00 +5°C° 0 mm 2 mps 753 mmHg 88%
14:00 +6°C° 0 mm 2 mps 752 mmHg 87%
15:00 +5°C° 0 mm 3 mps 752 mmHg 85%
16:00 +5°C° 0.1 mm 3 mps 752 mmHg 87%
17:00 +5°C° 0.1 mm 3 mps 751 mmHg 89%
18:00 +5°C° 0.1 mm 3 mps 750 mmHg 90%
19:00 +5°C° 0.5 mm 3 mps 750 mmHg 91%
20:00 +5°C° 0.5 mm 3 mps 749 mmHg 91%
21:00 +5°C° 0.5 mm 4 mps 748 mmHg 91%
22:00 +6°C° 0.7 mm 4 mps 748 mmHg 92%
23:00 +6°C° 0.7 mm 4 mps 747 mmHg 92%

Day after tomorrow, 23 October, Friday

Time Temperature Precipitation Wind Pressure Humidity
00:00 +6°C° 0.7 mm 4 mps 746 mmHg 93%
01:00 +6°C° 0.4 mm 4 mps 746 mmHg 93%
02:00 +6°C° 0.4 mm 4 mps 745 mmHg 93%
03:00 +7°C° 0.4 mm 3 mps 745 mmHg 93%
04:00 +8°C° 0.3 mm 3 mps 744 mmHg 93%
05:00 +7°C° 0.3 mm 4 mps 744 mmHg 93%
06:00 +8°C° 0.3 mm 4 mps 744 mmHg 93%
07:00 +10°C° 0.1 mm 4 mps 744 mmHg 91%
08:00 +10°C° 0.1 mm 4 mps 744 mmHg 88%
09:00 +10°C° 0.1 mm 5 mps 744 mmHg 86%
10:00 +12°C° 0 mm 5 mps 744 mmHg 83%
11:00 +12°C° 0 mm 5 mps 744 mmHg 80%
12:00 +13°C° 0 mm 5 mps 745 mmHg 78%
13:00 +12°C° 0 mm 5 mps 745 mmHg 78%
14:00 +12°C° 0 mm 5 mps 745 mmHg 79%
15:00 +12°C° 0 mm 5 mps 745 mmHg 79%
16:00 +11°C° 0 mm 4 mps 745 mmHg 82%
17:00 +10°C° 0 mm 4 mps 745 mmHg 85%
18:00 +10°C° 0 mm 3 mps 745 mmHg 88%
19:00 +10°C° 0 mm 3 mps 745 mmHg 89%
20:00 +10°C° 0 mm 3 mps 745 mmHg 89%
21:00 +10°C° 0 mm 3 mps 744 mmHg 89%
22:00 +10°C° 0.9 mm 3 mps 744 mmHg 90%
23:00 +11°C° 0.9 mm 4 mps 743 mmHg 92%

24 October, Saturday

Time Temperature Precipitation Wind Pressure Humidity
00:00 +11°C° 0.9 mm 4 mps 742 mmHg 93%
01:00 +11°C° 0.6 mm 4 mps 742 mmHg 93%
02:00 +11°C° 0.6 mm 4 mps 742 mmHg 92%
03:00 +11°C° 0.6 mm 4 mps 742 mmHg 92%
04:00 +11°C° 0.1 mm 4 mps 742 mmHg 92%
05:00 +11°C° 0.1 mm 3 mps 742 mmHg 92%
06:00 +10°C° 0.1 mm 3 mps 742 mmHg 91%
07:00 +10°C° 0 mm 4 mps 743 mmHg 90%
08:00 +10°C° 0 mm 4 mps 743 mmHg 88%
09:00 +11°C° 0 mm 4 mps 743 mmHg 87%
10:00 +11°C° 0 mm 4 mps 744 mmHg 83%
11:00 +11°C° 0 mm 4 mps 744 mmHg 79%
12:00 +12°C° 0 mm 4 mps 745 mmHg 75%
13:00 +11°C° 0 mm 4 mps 745 mmHg 74%
14:00 +11°C° 0 mm 3 mps 745 mmHg 74%
15:00 +11°C° 0 mm 3 mps 745 mmHg 73%
16:00 +10°C° 0 mm 3 mps 745 mmHg 74%
17:00 +10°C° 0 mm 2 mps 746 mmHg 75%
18:00 +9°C° 0 mm 2 mps 746 mmHg 77%
19:00 +9°C° 0 mm 2 mps 746 mmHg 78%
20:00 +9°C° 0 mm 1 mps 746 mmHg 80%
21:00 +9°C° 0 mm 1 mps 746 mmHg 82%
22:00 +9°C° 0 mm 1 mps 746 mmHg 82%
23:00 +9°C° 0 mm 1 mps 746 mmHg 83%

25 October, Sunday

Time Temperature Precipitation Wind Pressure Humidity
00:00 +7°C° 0 mm 0 mps 746 mmHg 83%
01:00 +8°C° 0 mm 1 mps 745 mmHg 84%
02:00 +8°C° 0 mm 1 mps 745 mmHg 85%
03:00 +8°C° 0 mm 1 mps 744 mmHg 86%
04:00 +7°C° 0.1 mm 2 mps 744 mmHg 87%
05:00 +7°C° 0.1 mm 2 mps 743 mmHg 88%
06:00 +7°C° 0.1 mm 2 mps 743 mmHg 90%
07:00 +7°C° 1.5 mm 3 mps 742 mmHg 91%
08:00 +7°C° 1.5 mm 3 mps 742 mmHg 93%
09:00 +6°C° 1.5 mm 4 mps 741 mmHg 94%
10:00 +6°C° 2 mm 4 mps 741 mmHg 93%
11:00 +6°C° 2 mm 5 mps 741 mmHg 93%
12:00 +6°C° 2 mm 5 mps 742 mmHg 92%
13:00 +6°C° 1.1 mm 5 mps 742 mmHg 91%
14:00 +6°C° 1.1 mm 5 mps 742 mmHg 91%
15:00 +6°C° 1.1 mm 5 mps 743 mmHg 90%
16:00 +6°C° 0.2 mm 5 mps 744 mmHg 89%
17:00 +6°C° 0.2 mm 5 mps 745 mmHg 88%
18:00 +6°C° 0.2 mm 5 mps 746 mmHg 87%
19:00 +6°C° 0 mm 4 mps 746 mmHg 89%
20:00 +6°C° 0 mm 4 mps 747 mmHg 90%
21:00 +6°C° 0 mm 4 mps 748 mmHg 92%
22:00 +5°C° 0 mm 3 mps 749 mmHg 92%
23:00 +5°C° 0 mm 3 mps 750 mmHg 93%

26 October, Monday

Time Temperature Precipitation Wind Pressure Humidity
00:00 +4°C° 0 mm 3 mps 750 mmHg 93%
01:00 +4°C° 0 mm 3 mps 751 mmHg 94%
02:00 +5°C° 0 mm 2 mps 751 mmHg 94%
03:00 +4°C° 0 mm 2 mps 752 mmHg 94%
04:00 +4°C° 0 mm 2 mps 753 mmHg 95%
05:00 +4°C° 0 mm 2 mps 753 mmHg 95%
06:00 +4°C° 0 mm 2 mps 754 mmHg 95%
07:00 +4°C° 0 mm 2 mps 754 mmHg 93%
08:00 +6°C° 0 mm 1 mps 755 mmHg 91%
09:00 +6°C° 0 mm 1 mps 755 mmHg 89%
10:00 +7°C° 0 mm 1 mps 756 mmHg 86%
11:00 +9°C° 0 mm 1 mps 756 mmHg 83%
12:00 +10°C° 0 mm 1 mps 756 mmHg 79%
13:00 +10°C° 0 mm 1 mps 757 mmHg 80%
14:00 +10°C° 0 mm 1 mps 757 mmHg 80%
15:00 +11°C° 0 mm 1 mps 757 mmHg 81%
16:00 +10°C° 0 mm 1 mps 757 mmHg 85%
17:00 +9°C° 0 mm 1 mps 757 mmHg 88%
18:00 +8°C° 0 mm 1 mps 757 mmHg 92%
19:00 +7°C° 0 mm 1 mps 758 mmHg 93%
20:00 +7°C° 0 mm 1 mps 758 mmHg 94%
21:00 +6°C° 0 mm 1 mps 758 mmHg 95%
22:00 +6°C° 0 mm 1 mps 758 mmHg 95%
23:00 +6°C° 0 mm 1 mps 758 mmHg 95%

27 October, Tuesday

Time Temperature Precipitation Wind Pressure Humidity
00:00 +5°C° 0 mm 1 mps 758 mmHg 95%
01:00 +5°C° 0 mm 1 mps 759 mmHg 95%
02:00 +5°C° 0 mm 1 mps 759 mmHg 95%
03:00 +5°C° 0 mm 1 mps 759 mmHg 95%
04:00 +5°C° 0 mm 1 mps 759 mmHg 96%
05:00 +5°C° 0 mm 1 mps 759 mmHg 96%
06:00 +5°C° 0 mm 1 mps 760 mmHg 96%
07:00 +5°C° 0 mm 1 mps 760 mmHg 95%
08:00 +6°C° 0 mm 1 mps 760 mmHg 94%
09:00 +6°C° 0 mm 1 mps 760 mmHg 93%
10:00 +8°C° 0 mm 1 mps 760 mmHg 89%
11:00 +8°C° 0 mm 2 mps 760 mmHg 84%
12:00 +9°C° 0 mm 2 mps 760 mmHg 80%
13:00 +9°C° 0 mm 2 mps 760 mmHg 79%
14:00 +10°C° 0 mm 2 mps 760 mmHg 78%
15:00 +10°C° 0 mm 2 mps 760 mmHg 77%
16:00 +9°C° 0 mm 2 mps 760 mmHg 81%
17:00 +7°C° 0 mm 2 mps 760 mmHg 86%
18:00 +6°C° 0 mm 2 mps 760 mmHg 90%
19:00 +6°C° 0 mm 2 mps 760 mmHg 91%
20:00 +6°C° 0 mm 2 mps 760 mmHg 91%
21:00 +5°C° 0 mm 2 mps 760 mmHg 91%
22:00 +5°C° 0 mm 2 mps 761 mmHg 91%
23:00 +5°C° 0 mm 2 mps 761 mmHg 91%
Show more